This is the latest recevied weather packets stored in our database for station/object KR4KUV. If no packets are shown the sender has not sent any weather packets the latest 10 day(s).
| Time | Temp. | Humidity | Pressure | Rain* | Wind** | Luminosity | Snow |
|---|---|---|---|---|---|---|---|
| 1787618048 | 21.67° C | 90% | 1017.3 hPa | 0 mm | - | 0 W/m² | - |
| 1787617742 | 21.67° C | 90% | 1017.3 hPa | 0 mm | - | 0 W/m² | - |
| 1787617441 | 21.67° C | 89% | 1017.2 hPa | 0 mm | - | 0 W/m² | - |
| 1787617136 | 22.22° C | 88% | 1017.3 hPa | 0 mm | - | 0 W/m² | - |
| 1787616831 | 22.78° C | 87% | 1017.2 hPa | 0 mm | - | 0 W/m² | - |
| 1787616525 | 22.78° C | 85% | 1017.1 hPa | 0 mm | - | 1 W/m² | - |
| 1787616224 | 22.78° C | 85% | 1016.9 hPa | 0 mm | - | 2 W/m² | - |
| 1787615922 | 23.33° C | 85% | 1016.9 hPa | 0 mm | - | 3 W/m² | - |
| 1787615617 | 23.89° C | 83% | 1017 hPa | 0 mm | - | 5 W/m² | - |
| 1787615313 | 23.89° C | 82% | 1017 hPa | 0 mm | - | 7 W/m² | - |
| 1787615009 | 23.89° C | 81% | 1017 hPa | 0 mm | - | 8 W/m² | - |
| 1787614705 | 24.44° C | 81% | 1016.8 hPa | 0 mm | - | 11 W/m² | - |
| 1787614401 | 24.44° C | 80% | 1017 hPa | 0 mm | - | 14 W/m² | - |
| 1787614098 | 25° C | 77% | 1017 hPa | 0 mm | - | 17 W/m² | - |
| 1787613794 | 25.56° C | 73% | 1017 hPa | 0 mm | - | 21 W/m² | - |
| 1787613489 | 25.56° C | 72% | 1017 hPa | 0 mm | - | 25 W/m² | - |
| 1787613184 | 26.11° C | 69% | 1016.7 hPa | 0 mm | - | 29 W/m² | - |
| 1787612881 | 26.67° C | 66% | 1016.8 hPa | 0 mm | - | 31 W/m² | - |
| 1787612577 | 27.22° C | 63% | 1016.9 hPa | 0 mm | - | 34 W/m² | - |
| 1787612273 | 27.78° C | 61% | 1016.8 hPa | 0 mm | - | 58 W/m² | - |
| 1787611969 | 27.78° C | 58% | 1016.7 hPa | 0 mm | - | 67 W/m² | - |
| 1787611664 | 28.33° C | 58% | 1016.7 hPa | 0 mm | - | 82 W/m² | - |
| 1787611356 | 28.33° C | 57% | 1016.7 hPa | 0 mm | - | 98 W/m² | - |
| 1787611056 | 28.33° C | 58% | 1016.6 hPa | 0 mm | - | 112 W/m² | - |
| 1787610751 | 28.89° C | 55% | 1016.5 hPa | 0 mm | - | 122 W/m² | - |
* Rain latest hour (hover to see other rain measurements)
** Current wind speed in m/s (hover to see current wind gust speed)